Regional Weather Roundup
Issued by NWS

Home | Current Version | Previous Version | Text Only | Print | Product List | Glossary Off
Versions: 1 2 3 4 5 6 7 8 9 10 11 12 13 14 15 16 17 18 19 20 21 22 23 24 25 26 27 28 29 30 31 32 33 34 35 36 37 38 39 40 41 42 43 44 45 46 47 48 49 50

000
ASUS43 KFSD 222310
RWRSD

WEATHER ROUNDUP FOR SOUTH DAKOTA
NATIONAL WEATHER SERVICE SIOUX FALLS SD
600 PM CDT THU JUN 22 2017

NOTE: "FAIR" INDICATES FEW OR NO CLOUDS BELOW 12,000 FEET WITH NO
SIGNIFICANT WEATHER AND/OR OBSTRUCTIONS TO VISIBILITY.


SDZ001>005-009-010-012>017-230000-
NORTHWEST AND NORTH CENTRAL SOUTH DAKOTA

CITY           SKY/WX    TMP DP  RH WIND       PRES   REMARKS
BUFFALO          N/A     72  32  23 NW29G38   29.90R
FAITH            N/A     74  36  25 N14       29.89R
MOBRIDGE       MOSUNNY   80  33  18 NW20G25   29.80S
$$

SDZ012>016-024>037-041>051-057-063-072>074-230000-
SOUTHWEST AND SOUTH CENTRAL SOUTH DAKOTA

CITY           SKY/WX    TMP DP  RH WIND       PRES   REMARKS
RAPID CTY ARPT MOSUNNY   78  36  21 NW18G30   29.91F
PIERRE         SUNNY     77  44  30 VRB5      29.83S
CUSTER         MOSUNNY   65  37  35 S3        30.02R
ELLSWORTH AFB  SUNNY     77  33  20 N18G28    29.91S
PHILIP         PTSUNNY   79  41  25 N9        29.86S
PINE RIDGE     SUNNY     78  45  30 N14       29.91S
SPEARFISH      FAIR      70  37  30 W7        29.98S
WINNER         FAIR      80  46  30 N8        29.85S
$$

SDZ004>011-016>023-039-040-230000-
NORTHEAST SOUTH DAKOTA

CITY           SKY/WX    TMP DP  RH WIND       PRES   REMARKS
ABERDEEN       MOSUNNY   76  42  29 NW10      29.78S
WATERTOWN      MOSUNNY   73  53  49 W7        29.80F
BROOKINGS      CLOUDY    71  51  49 N8        29.82R
SISSETON         N/A     81  47  30 NW17      29.74F
$$

SDZ017-020-022-023-036>040-048>070-230000-
SOUTHEAST SOUTH DAKOTA

CITY           SKY/WX    TMP DP  RH WIND       PRES   REMARKS
SIOUX FALLS    CLOUDY    71  61  70 N13       29.77S
HURON          SUNNY     76  52  43 VRB3      29.81S
CHAMBERLAIN    SUNNY     79  50  36 NW9       29.83S
MITCHELL       CLOUDY    75  51  43 N13       29.81S
YANKTON        MOSUNNY   75  65  70 N14       29.76R
$$

ABBREVIATIONS USED IN REMARKS
   TC - TEMPERATURE IN CELSIUS
  WCI - WIND CHILL INDEX
   HX - HEAT INDEX
  VSB - VISIBILITY





USA.gov is the U.S. government's official web portal to all federal, state and local government web resources and services.